Private Wetterstation Wechselburg
Wetterdaten: Donnerstag, 08.07.2021
Datum Zeit Temp. +2m Bodentemp. Temp.+5cm Temp. Wind Windchill X Diff Temp. Feuchte +2m Feuchte +5cm Luftdruck Regen Wind Richtung Richtung Sonnenschein Taupunkt Windchill Windben
08.07.2021 00:00 17,3 C 21,4 C 17,1 C 17,1 C 16,6 C 0,0 C 86 % 92 % 1018,6 hPa 0,0 l/m 0,0 km/h (0 Bft) N-NW 337 0 min 14,9 C 16,6 C 0,0 km/h (0 Bft)
08.07.2021 00:05 17,2 C 21,3 C 16,9 C 17,0 C 16,5 C 0,0 C 86 % 92 % 1018,6 hPa 0,0 l/m 0,0 km/h (0 Bft) N-NO 22 0 min 14,8 C 16,5 C 0,0 km/h (0 Bft)
08.07.2021 00:10 17,1 C 21,3 C 16,9 C 16,9 C 16,4 C 0,0 C 87 % 92 % 1018,6 hPa 0,0 l/m 0,0 km/h (0 Bft) O-NO 67 0 min 14,9 C 16,4 C 0,0 km/h (0 Bft)
08.07.2021 00:15 17,1 C 21,3 C 16,7 C 16,9 C 16,4 C 0,0 C 87 % 92 % 1019,4 hPa 0,0 l/m 0,0 km/h (0 Bft) O-NO 67 0 min 14,9 C 16,4 C 0,0 km/h (0 Bft)
08.07.2021 00:20 16,9 C 21,3 C 16,7 C 16,7 C 16,3 C 0,0 C 87 % 92 % 1019,4 hPa 0,0 l/m 0,0 km/h (0 Bft) O-NO 67 0 min 14,7 C 16,3 C 0,0 km/h (0 Bft)
08.07.2021 00:25 16,8 C 21,3 C 16,6 C 16,6 C 16,2 C 0,0 C 87 % 92 % 1019,4 hPa 0,0 l/m 0,0 km/h (0 Bft) O-NO 67 0 min 14,6 C 16,2 C 0,0 km/h (0 Bft)
08.07.2021 00:30 16,7 C 21,3 C 16,6 C 16,5 C 16,1 C 0,0 C 87 % 93 % 1019,4 hPa 0,0 l/m 0,0 km/h (0 Bft) O-NO 67 0 min 14,5 C 16,1 C 0,0 km/h (0 Bft)
08.07.2021 00:35 16,7 C 21,3 C 16,5 C 16,4 C 15,9 C 0,0 C 87 % 93 % 1019,4 hPa 0,0 l/m 0,0 km/h (0 Bft) O-NO 67 0 min 14,5 C 15,9 C 0,0 km/h (0 Bft)
08.07.2021 00:40 16,5 C 21,3 C 16,4 C 16,3 C 15,8 C 0,0 C 87 % 93 % 1019,4 hPa 0,0 l/m 0,0 km/h (0 Bft) O-NO 67 0 min 14,3 C 15,8 C 0,0 km/h (0 Bft)
08.07.2021 00:45 16,4 C 21,3 C 16,3 C 16,2 C 15,8 C 0,0 C 87 % 92 % 1019,4 hPa 0,0 l/m 0,0 km/h (0 Bft) O-NO 67 0 min 14,2 C 15,8 C 0,0 km/h (0 Bft)
08.07.2021 00:50 16,3 C 21,3 C 16,3 C 16,1 C 15,7 C 0,0 C 87 % 92 % 1019,4 hPa 0,0 l/m 0,0 km/h (0 Bft) O-NO 67 0 min 14,1 C 15,7 C 0,0 km/h (0 Bft)
08.07.2021 00:55 16,3 C 21,3 C 16,2 C 16,1 C 15,7 C 0,0 C 87 % 93 % 1019,2 hPa 0,0 l/m 0,0 km/h (0 Bft) O-NO 67 0 min 14,1 C 15,7 C 0,0 km/h (0 Bft)
08.07.2021 01:00 16,2 C 21,3 C 16,1 C 16,0 C 15,6 C 0,0 C 87 % 93 % 1019,2 hPa 0,0 l/m 0,0 km/h (0 Bft) O-NO 67 0 min 14,0 C 15,6 C 0,0 km/h (0 Bft)
08.07.2021 01:05 16,1 C 21,3 C 16,1 C 15,9 C 15,5 C 0,0 C 87 % 93 % 1019,2 hPa 0,0 l/m 0,0 km/h (0 Bft) O-NO 67 0 min 13,9 C 15,5 C 0,0 km/h (0 Bft)
08.07.2021 01:10 16,0 C 21,3 C 16,0 C 15,8 C 15,5 C 0,0 C 87 % 93 % 1019,2 hPa 0,0 l/m 0,0 km/h (0 Bft) O-NO 67 0 min 13,8 C 15,5 C 0,0 km/h (0 Bft)
08.07.2021 01:15 15,9 C 21,3 C 15,9 C 15,7 C 15,3 C 0,0 C 87 % 93 % 1018,4 hPa 0,0 l/m 0,0 km/h (0 Bft) O-NO 67 0 min 13,7 C 15,3 C 0,0 km/h (0 Bft)
08.07.2021 01:20 15,8 C 21,3 C 15,9 C 15,6 C 15,3 C 0,0 C 87 % 93 % 1018,4 hPa 0,0 l/m 0,0 km/h (0 Bft) O-NO 67 0 min 13,6 C 15,3 C 0,0 km/h (0 Bft)
08.07.2021 01:25 15,7 C 21,4 C 15,9 C 15,6 C 15,3 C 0,0 C 87 % 93 % 1018,4 hPa 0,0 l/m 0,0 km/h (0 Bft) O-NO 67 0 min 13,5 C 15,3 C 0,0 km/h (0 Bft)
08.07.2021 01:30 15,6 C 21,4 C 15,8 C 15,5 C 15,3 C 0,0 C 87 % 93 % 1018,4 hPa 0,0 l/m 0,0 km/h (0 Bft) O-NO 67 0 min 13,4 C 15,3 C 0,0 km/h (0 Bft)
08.07.2021 01:35 15,6 C 21,4 C 15,8 C 15,5 C 15,4 C 0,0 C 87 % 93 % 1018,8 hPa 0,0 l/m 0,0 km/h (0 Bft) O-NO 67 0 min 13,4 C 15,4 C 0,0 km/h (0 Bft)
08.07.2021 01:40 15,5 C 21,4 C 15,7 C 15,4 C 15,3 C 0,0 C 88 % 93 % 1018,8 hPa 0,0 l/m 0,0 km/h (0 Bft) O-NO 67 0 min 13,5 C 15,3 C 0,0 km/h (0 Bft)
08.07.2021 01:45 15,5 C 21,4 C 15,7 C 15,4 C 15,2 C 0,0 C 88 % 93 % 1018,8 hPa 0,0 l/m 0,0 km/h (0 Bft) O-NO 67 0 min 13,5 C 15,2 C 0,0 km/h (0 Bft)
08.07.2021 01:50 15,4 C 21,3 C 15,6 C 15,3 C 15,2 C 0,0 C 87 % 93 % 1018,8 hPa 0,0 l/m 0,0 km/h (0 Bft) O-NO 67 0 min 13,2 C 15,2 C 0,0 km/h (0 Bft)
08.07.2021 01:55 15,3 C 21,3 C 15,6 C 15,2 C 15,1 C 0,0 C 87 % 93 % 1019,1 hPa 0,0 l/m 0,0 km/h (0 Bft) O-NO 67 0 min 13,1 C 15,1 C 0,0 km/h (0 Bft)
08.07.2021 02:00 15,3 C 21,3 C 15,5 C 15,2 C 15,0 C 0,0 C 87 % 93 % 1019,1 hPa 0,0 l/m 0,0 km/h (0 Bft) O-NO 67 0 min 13,1 C 15,0 C 0,0 km/h (0 Bft)
08.07.2021 02:05 15,2 C 21,3 C 15,5 C 15,1 C 14,8 C 0,0 C 87 % 93 % 1019,1 hPa 0,0 l/m 0,0 km/h (0 Bft) O-NO 67 0 min 13,0 C 14,8 C 0,0 km/h (0 Bft)
08.07.2021 02:10 15,1 C 21,3 C 15,4 C 15,0 C 14,7 C 0,0 C 87 % 93 % 1019,1 hPa 0,0 l/m 0,0 km/h (0 Bft) O-NO 67 0 min 13,0 C 14,7 C 0,0 km/h (0 Bft)
08.07.2021 02:15 15,0 C 21,3 C 15,3 C 14,9 C 14,6 C 0,0 C 87 % 93 % 1019,2 hPa 0,0 l/m 0,0 km/h (0 Bft) O-NO 67 0 min 12,9 C 14,6 C 0,0 km/h (0 Bft)
08.07.2021 02:20 15,1 C 21,3 C 15,3 C 14,9 C 14,6 C 0,0 C 87 % 93 % 1019,2 hPa 0,0 l/m 0,0 km/h (0 Bft) O-NO 67 0 min 13,0 C 14,6 C 0,0 km/h (0 Bft)
08.07.2021 02:25 14,8 C 21,3 C 15,1 C 14,7 C 14,5 C 0,0 C 87 % 93 % 1019,2 hPa 0,0 l/m 0,0 km/h (0 Bft) O-NO 67 0 min 12,7 C 14,5 C 0,0 km/h (0 Bft)
08.07.2021 02:30 14,9 C 21,3 C 15,1 C 14,8 C 14,5 C 0,0 C 87 % 93 % 1019,2 hPa 0,0 l/m 0,0 km/h (0 Bft) O-NO 67 0 min 12,8 C 14,5 C 0,0 km/h (0 Bft)
08.07.2021 02:35 14,7 C 21,3 C 15,0 C 14,6 C 14,4 C 0,0 C 87 % 93 % 1019,3 hPa 0,0 l/m 0,0 km/h (0 Bft) O-NO 67 0 min 12,6 C 14,4 C 0,0 km/h (0 Bft)
08.07.2021 02:40 14,7 C 21,3 C 15,0 C 14,6 C 14,5 C 0,0 C 87 % 93 % 1019,3 hPa 0,0 l/m 0,0 km/h (0 Bft) O-NO 67 0 min 12,6 C 14,5 C 0,0 km/h (0 Bft)
08.07.2021 02:45 14,6 C 21,3 C 15,0 C 14,6 C 14,5 C 0,0 C 87 % 93 % 1019,3 hPa 0,0 l/m 0,0 km/h (0 Bft) O-NO 67 0 min 12,5 C 14,5 C 0,0 km/h (0 Bft)
08.07.2021 02:50 14,5 C 21,3 C 15,0 C 14,5 C 14,5 C 0,0 C 87 % 93 % 1019,3 hPa 0,0 l/m 0,0 km/h (0 Bft) O-NO 67 0 min 12,4 C 14,5 C 0,0 km/h (0 Bft)
08.07.2021 02:55 14,4 C 21,3 C 14,9 C 14,4 C 14,3 C 0,0 C 87 % 93 % 1019,1 hPa 0,0 l/m 0,0 km/h (0 Bft) O-NO 67 0 min 12,3 C 14,3 C 0,0 km/h (0 Bft)
08.07.2021 03:00 14,4 C 21,3 C 14,9 C 14,4 C 14,3 C 0,0 C 87 % 93 % 1019,1 hPa 0,0 l/m 0,0 km/h (0 Bft) O-NO 67 0 min 12,3 C 14,3 C 0,0 km/h (0 Bft)
08.07.2021 03:05 14,3 C 21,2 C 14,8 C 14,2 C 14,1 C 0,0 C 88 % 93 % 1019,1 hPa 0,0 l/m 0,0 km/h (0 Bft) O-NO 67 0 min 12,3 C 14,1 C 0,0 km/h (0 Bft)
08.07.2021 03:10 14,3 C 21,2 C 14,7 C 14,2 C 14,0 C 0,0 C 88 % 93 % 1019,1 hPa 0,0 l/m 0,0 km/h (0 Bft) O-NO 67 0 min 12,3 C 14,0 C 0,0 km/h (0 Bft)
08.07.2021 03:15 14,3 C 21,2 C 14,8 C 14,2 C 14,1 C 0,0 C 88 % 93 % 1019,1 hPa 0,0 l/m 0,0 km/h (0 Bft) O-NO 67 0 min 12,3 C 14,1 C 0,0 km/h (0 Bft)
08.07.2021 03:20 14,1 C 21,2 C 14,7 C 14,1 C 14,1 C 0,0 C 88 % 93 % 1019,1 hPa 0,0 l/m 0,0 km/h (0 Bft) O-NO 67 0 min 12,1 C 14,1 C 0,0 km/h (0 Bft)
08.07.2021 03:25 14,0 C 21,2 C 14,7 C 14,1 C 14,1 C 0,1 C 88 % 93 % 1019,1 hPa 0,0 l/m 0,0 km/h (0 Bft) O-NO 67 0 min 12,0 C 14,1 C 0,0 km/h (0 Bft)
08.07.2021 03:30 14,1 C 21,2 C 14,7 C 14,2 C 14,2 C 0,1 C 88 % 93 % 1019,1 hPa 0,0 l/m 0,0 km/h (0 Bft) O-NO 67 0 min 12,1 C 14,2 C 0,0 km/h (0 Bft)
08.07.2021 03:35 13,9 C 21,2 C 14,6 C 14,0 C 14,0 C 0,1 C 87 % 93 % 1019,1 hPa 0,0 l/m 0,0 km/h (0 Bft) O-NO 67 0 min 11,8 C 14,0 C 0,0 km/h (0 Bft)
08.07.2021 03:40 13,9 C 21,2 C 14,5 C 13,9 C 13,9 C 0,0 C 88 % 93 % 1019,1 hPa 0,0 l/m 0,0 km/h (0 Bft) O-NO 67 0 min 11,9 C 13,9 C 0,0 km/h (0 Bft)
08.07.2021 03:45 13,9 C 21,2 C 14,5 C 13,9 C 13,8 C 0,0 C 88 % 93 % 1019,1 hPa 0,0 l/m 0,0 km/h (0 Bft) O-NO 67 0 min 11,9 C 13,8 C 0,0 km/h (0 Bft)
08.07.2021 03:50 13,9 C 21,1 C 14,4 C 13,9 C 13,8 C 0,0 C 88 % 93 % 1019,1 hPa 0,0 l/m 0,0 km/h (0 Bft) O-NO 67 0 min 11,9 C 13,8 C 0,0 km/h (0 Bft)
08.07.2021 03:55 13,7 C 21,1 C 14,4 C 13,8 C 13,8 C 0,1 C 88 % 93 % 1018,4 hPa 0,0 l/m 0,0 km/h (0 Bft) O-NO 67 0 min 11,7 C 13,8 C 0,0 km/h (0 Bft)
08.07.2021 04:00 13,7 C 21,1 C 14,4 C 13,8 C 13,8 C 0,1 C 88 % 93 % 1018,4 hPa 0,0 l/m 0,0 km/h (0 Bft) O-NO 67 0 min 11,7 C 13,8 C 0,0 km/h (0 Bft)
08.07.2021 04:05 13,6 C 21,1 C 14,5 C 13,8 C 13,8 C 0,2 C 88 % 93 % 1018,4 hPa 0,0 l/m 0,0 km/h (0 Bft) O-NO 67 0 min 11,6 C 13,8 C 0,0 km/h (0 Bft)
08.07.2021 04:10 13,7 C 21,1 C 14,5 C 13,9 C 13,9 C 0,2 C 88 % 93 % 1018,4 hPa 0,0 l/m 0,0 km/h (0 Bft) O-NO 67 0 min 11,7 C 13,9 C 0,0 km/h (0 Bft)
08.07.2021 04:15 13,6 C 21,1 C 14,5 C 14,0 C 14,0 C 0,4 C 88 % 93 % 1019,0 hPa 0,0 l/m 0,0 km/h (0 Bft) O-NO 67 0 min 11,6 C 14,0 C 0,0 km/h (0 Bft)
08.07.2021 04:20 13,6 C 21,1 C 14,5 C 14,1 C 14,1 C 0,5 C 88 % 93 % 1019,0 hPa 0,0 l/m 0,0 km/h (0 Bft) O-NO 67 0 min 11,6 C 14,1 C 0,0 km/h (0 Bft)
08.07.2021 04:25 13,5 C 21,1 C 14,5 C 14,1 C 14,1 C 0,6 C 88 % 93 % 1019,0 hPa 0,0 l/m 0,0 km/h (0 Bft) O-NO 67 0 min 11,6 C 14,1 C 0,0 km/h (0 Bft)
08.07.2021 04:30 13,5 C 21,1 C 14,6 C 14,2 C 14,2 C 0,7 C 88 % 93 % 1019,0 hPa 0,0 l/m 0,0 km/h (0 Bft) O-NO 67 0 min 11,6 C 14,2 C 0,0 km/h (0 Bft)
08.07.2021 04:35 13,5 C 21,1 C 14,6 C 14,3 C 14,3 C 0,8 C 88 % 93 % 1019,0 hPa 0,0 l/m 0,0 km/h (0 Bft) O-NO 67 0 min 11,6 C 14,3 C 0,0 km/h (0 Bft)
08.07.2021 04:40 13,5 C 21,1 C 14,6 C 14,3 C 14,3 C 0,8 C 88 % 93 % 1019,0 hPa 0,0 l/m 0,0 km/h (0 Bft) O-NO 67 0 min 11,6 C 14,3 C 0,0 km/h (0 Bft)
08.07.2021 04:45 13,5 C 21,1 C 14,7 C 14,4 C 14,4 C 0,9 C 88 % 93 % 1019,0 hPa 0,0 l/m 0,0 km/h (0 Bft) O-NO 67 0 min 11,6 C 14,4 C 0,0 km/h (0 Bft)
08.07.2021 04:50 13,5 C 21,1 C 14,7 C 14,4 C 14,4 C 0,9 C 88 % 93 % 1019,0 hPa 0,0 l/m 0,0 km/h (0 Bft) O-NO 67 0 min 11,6 C 14,4 C 0,0 km/h (0 Bft)
08.07.2021 04:55 13,5 C 21,1 C 14,7 C 14,5 C 14,5 C 1,0 C 88 % 93 % 1019,1 hPa 0,0 l/m 0,0 km/h (0 Bft) O-NO 67 0 min 11,6 C 14,5 C 0,0 km/h (0 Bft)
08.07.2021 05:00 13,5 C 21,1 C 14,7 C 14,5 C 14,5 C 1,0 C 88 % 93 % 1019,1 hPa 0,0 l/m 0,0 km/h (0 Bft) O-NO 67 0 min 11,6 C 14,5 C 0,0 km/h (0 Bft)
08.07.2021 05:05 13,5 C 21,1 C 14,7 C 14,6 C 14,6 C 1,1 C 88 % 93 % 1019,1 hPa 0,0 l/m 0,0 km/h (0 Bft) O-NO 67 0 min 11,6 C 14,6 C 0,0 km/h (0 Bft)
08.07.2021 05:10 13,6 C 21,1 C 14,8 C 14,6 C 14,6 C 1,0 C 88 % 92 % 1019,1 hPa 0,0 l/m 0,0 km/h (0 Bft) O-NO 67 0 min 11,6 C 14,6 C 0,0 km/h (0 Bft)
08.07.2021 05:15 13,6 C 21,1 C 14,8 C 14,6 C 14,6 C 1,0 C 88 % 93 % 1018,5 hPa 0,0 l/m 0,0 km/h (0 Bft) O-NO 67 0 min 11,6 C 14,6 C 0,0 km/h (0 Bft)
08.07.2021 05:20 13,6 C 21,1 C 14,8 C 14,5 C 14,5 C 0,9 C 88 % 93 % 1018,5 hPa 0,0 l/m 0,0 km/h (0 Bft) O-NO 67 5 min 11,6 C 14,5 C 0,0 km/h (0 Bft)
08.07.2021 05:25 13,6 C 21,1 C 14,7 C 14,5 C 14,5 C 0,9 C 88 % 93 % 1018,5 hPa 0,0 l/m 0,0 km/h (0 Bft) O-NO 67 5 min 11,6 C 14,5 C 0,0 km/h (0 Bft)
08.07.2021 05:30 13,5 C 21,1 C 14,7 C 14,4 C 14,4 C 0,9 C 88 % 93 % 1018,5 hPa 0,0 l/m 0,0 km/h (0 Bft) O-NO 67 5 min 11,6 C 14,4 C 0,0 km/h (0 Bft)
08.07.2021 05:35 13,5 C 21,0 C 14,8 C 14,4 C 14,4 C 0,9 C 88 % 93 % 1019,2 hPa 0,0 l/m 0,0 km/h (0 Bft) O-NO 67 5 min 11,6 C 14,4 C 0,0 km/h (0 Bft)
08.07.2021 05:40 13,5 C 21,0 C 14,8 C 14,5 C 14,5 C 1,0 C 88 % 93 % 1019,2 hPa 0,0 l/m 0,0 km/h (0 Bft) O-NO 67 5 min 11,6 C 14,5 C 0,0 km/h (0 Bft)
08.07.2021 05:45 13,5 C 21,0 C 14,8 C 14,5 C 14,5 C 1,0 C 88 % 93 % 1019,2 hPa 0,0 l/m 0,0 km/h (0 Bft) O-NO 67 5 min 11,6 C 14,5 C 0,0 km/h (0 Bft)
08.07.2021 05:50 13,5 C 21,0 C 14,8 C 14,6 C 14,6 C 1,1 C 88 % 93 % 1019,2 hPa 0,0 l/m 0,0 km/h (0 Bft) O-NO 67 5 min 11,6 C 14,6 C 0,0 km/h (0 Bft)
08.07.2021 05:55 13,6 C 21,0 C 14,9 C 14,7 C 14,7 C 1,1 C 88 % 92 % 1019,6 hPa 0,0 l/m 0,0 km/h (0 Bft) O-NO 67 5 min 11,6 C 14,7 C 0,0 km/h (0 Bft)
08.07.2021 06:00 13,6 C 21,0 C 15,0 C 14,9 C 14,9 C 1,3 C 88 % 93 % 1019,6 hPa 0,0 l/m 0,0 km/h (0 Bft) O-NO 67 5 min 11,6 C 14,9 C 0,0 km/h (0 Bft)
08.07.2021 06:05 13,6 C 21,0 C 15,0 C 15,0 C 15,0 C 1,4 C 88 % 93 % 1019,6 hPa 0,0 l/m 0,0 km/h (0 Bft) O-NO 67 5 min 11,6 C 15,0 C 0,0 km/h (0 Bft)
08.07.2021 06:10 13,6 C 21,0 C 15,0 C 15,0 C 15,0 C 1,4 C 88 % 93 % 1019,6 hPa 0,0 l/m 0,0 km/h (0 Bft) O-NO 67 5 min 11,6 C 15,0 C 0,0 km/h (0 Bft)
08.07.2021 06:15 13,7 C 21,0 C 15,0 C 15,0 C 15,0 C 1,3 C 88 % 93 % 1019,7 hPa 0,0 l/m 0,0 km/h (0 Bft) O 90 0 min 11,7 C 15,0 C 0,0 km/h (0 Bft)
08.07.2021 06:20 13,7 C 21,0 C 15,0 C 15,0 C 15,0 C 1,3 C 88 % 93 % 1019,7 hPa 0,0 l/m 0,0 km/h (0 Bft) O-NO 67 0 min 11,7 C 15,0 C 0,0 km/h (0 Bft)
08.07.2021 06:25 13,7 C 21,0 C 15,0 C 15,0 C 15,0 C 1,3 C 88 % 93 % 1019,7 hPa 0,0 l/m 0,0 km/h (0 Bft) O-NO 67 0 min 11,7 C 15,0 C 0,0 km/h (0 Bft)
08.07.2021 06:30 13,7 C 21,0 C 15,1 C 15,0 C 15,0 C 1,3 C 88 % 93 % 1019,7 hPa 0,0 l/m 0,0 km/h (0 Bft) O-NO 67 0 min 11,7 C 15,0 C 0,0 km/h (0 Bft)
08.07.2021 06:35 13,8 C 21,0 C 15,1 C 15,1 C 15,1 C 1,3 C 88 % 93 % 1018,6 hPa 0,0 l/m 0,0 km/h (0 Bft) O-NO 67 0 min 11,8 C 15,1 C 0,0 km/h (0 Bft)
08.07.2021 06:40 13,9 C 21,0 C 15,2 C 15,2 C 15,2 C 1,3 C 88 % 93 % 1018,6 hPa 0,0 l/m 0,0 km/h (0 Bft) O-NO 67 0 min 11,9 C 15,2 C 0,0 km/h (0 Bft)
08.07.2021 06:45 13,9 C 21,0 C 15,3 C 15,3 C 15,3 C 1,4 C 88 % 93 % 1018,6 hPa 0,0 l/m 0,0 km/h (0 Bft) O-NO 67 0 min 11,9 C 15,3 C 0,0 km/h (0 Bft)
08.07.2021 06:50 13,9 C 21,0 C 15,4 C 15,3 C 15,3 C 1,4 C 88 % 93 % 1018,6 hPa 0,0 l/m 0,0 km/h (0 Bft) O-NO 67 0 min 11,9 C 15,3 C 0,0 km/h (0 Bft)
08.07.2021 06:55 14,1 C 21,0 C 15,4 C 15,4 C 15,4 C 1,3 C 88 % 93 % 1019,2 hPa 0,0 l/m 0,0 km/h (0 Bft) O-NO 67 0 min 12,1 C 15,4 C 0,0 km/h (0 Bft)
08.07.2021 07:00 14,1 C 21,0 C 15,4 C 15,5 C 15,5 C 1,4 C 88 % 93 % 1019,2 hPa 0,0 l/m 0,0 km/h (0 Bft) O-NO 67 0 min 12,1 C 15,5 C 0,0 km/h (0 Bft)
08.07.2021 07:05 14,2 C 21,1 C 15,5 C 15,5 C 15,5 C 1,3 C 88 % 93 % 1019,2 hPa 0,0 l/m 0,0 km/h (0 Bft) O-NO 67 0 min 12,2 C 15,5 C 0,0 km/h (0 Bft)
08.07.2021 07:10 14,2 C 21,1 C 15,5 C 15,5 C 15,5 C 1,3 C 88 % 93 % 1019,2 hPa 0,0 l/m 0,0 km/h (0 Bft) O-NO 67 0 min 12,2 C 15,5 C 0,0 km/h (0 Bft)
08.07.2021 07:15 14,3 C 21,0 C 15,5 C 15,5 C 15,5 C 1,2 C 88 % 93 % 1019,1 hPa 0,0 l/m 0,0 km/h (0 Bft) O-NO 67 0 min 12,3 C 15,5 C 0,0 km/h (0 Bft)
08.07.2021 07:20 14,3 C 21,1 C 15,5 C 15,5 C 15,5 C 1,2 C 88 % 93 % 1019,1 hPa 0,0 l/m 0,0 km/h (0 Bft) O 90 0 min 12,3 C 15,5 C 0,0 km/h (0 Bft)
08.07.2021 07:25 14,2 C 21,1 C 15,6 C 15,5 C 15,5 C 1,3 C 88 % 93 % 1019,1 hPa 0,0 l/m 0,0 km/h (0 Bft) O-NO 67 0 min 12,2 C 15,5 C 0,0 km/h (0 Bft)
08.07.2021 07:30 14,3 C 21,1 C 15,6 C 15,5 C 15,5 C 1,2 C 88 % 93 % 1019,1 hPa 0,0 l/m 0,0 km/h (0 Bft) O-NO 67 0 min 12,3 C 15,5 C 0,0 km/h (0 Bft)
08.07.2021 07:35 14,3 C 21,1 C 15,6 C 15,7 C 15,7 C 1,4 C 88 % 93 % 1019,2 hPa 0,0 l/m 0,0 km/h (0 Bft) O-NO 67 0 min 12,3 C 15,7 C 0,0 km/h (0 Bft)
08.07.2021 07:40 14,4 C 21,1 C 15,7 C 15,8 C 15,8 C 1,4 C 88 % 93 % 1019,2 hPa 0,0 l/m 0,0 km/h (0 Bft) O-NO 67 0 min 12,4 C 15,8 C 0,0 km/h (0 Bft)
08.07.2021 07:45 14,4 C 21,1 C 15,8 C 15,8 C 15,8 C 1,4 C 88 % 93 % 1019,2 hPa 0,0 l/m 0,2 km/h (0 Bft) O-NO 67 0 min 12,4 C 15,8 C 1,9 km/h (1 Bft)
08.07.2021 07:50 14,5 C 21,1 C 15,9 C 15,9 C 15,9 C 1,4 C 88 % 93 % 1019,2 hPa 0,0 l/m 0,2 km/h (0 Bft) O-NO 67 0 min 12,5 C 15,9 C 0,0 km/h (0 Bft)
08.07.2021 07:55 14,7 C 21,1 C 16,1 C 16,3 C 16,3 C 1,6 C 88 % 93 % 1019,3 hPa 0,0 l/m 0,2 km/h (0 Bft) O 90 0 min 12,7 C 16,3 C 0,0 km/h (0 Bft)
08.07.2021 08:00 14,7 C 21,1 C 16,1 C 16,5 C 16,5 C 1,8 C 88 % 93 % 1019,3 hPa 0,0 l/m 0,0 km/h (0 Bft) O 90 0 min 12,7 C 16,5 C 0,0 km/h (0 Bft)
08.07.2021 08:05 14,9 C 21,1 C 16,2 C 16,5 C 16,5 C 1,6 C 88 % 93 % 1019,3 hPa 0,0 l/m 0,0 km/h (0 Bft) O 90 0 min 12,9 C 16,5 C 0,0 km/h (0 Bft)
08.07.2021 08:10 14,9 C 21,1 C 16,3 C 16,7 C 16,7 C 1,8 C 88 % 93 % 1019,3 hPa 0,0 l/m 0,0 km/h (0 Bft) O 90 0 min 12,9 C 16,7 C 0,0 km/h (0 Bft)
08.07.2021 08:15 15,1 C 21,1 C 16,4 C 16,9 C 16,9 C 1,8 C 89 % 93 % 1019,4 hPa 0,0 l/m 0,0 km/h (0 Bft) S 180 0 min 13,3 C 16,9 C 0,0 km/h (0 Bft)
08.07.2021 08:20 15,1 C 21,1 C 16,4 C 17,1 C 17,1 C 2,0 C 89 % 93 % 1019,4 hPa 0,0 l/m 0,0 km/h (0 Bft) S 180 0 min 13,3 C 17,1 C 0,0 km/h (0 Bft)
08.07.2021 08:25 15,2 C 21,1 C 16,5 C 17,3 C 17,3 C 2,1 C 89 % 93 % 1019,4 hPa 0,0 l/m 0,0 km/h (0 Bft) S 180 0 min 13,4 C 17,3 C 0,0 km/h (0 Bft)
08.07.2021 08:30 15,3 C 21,1 C 16,5 C 17,4 C 17,4 C 2,1 C 88 % 93 % 1019,4 hPa 0,0 l/m 0,0 km/h (0 Bft) S 180 0 min 13,3 C 17,4 C 0,0 km/h (0 Bft)
08.07.2021 08:35 15,5 C 21,1 C 16,5 C 17,6 C 17,6 C 2,1 C 88 % 93 % 1019,5 hPa 0,0 l/m 0,0 km/h (0 Bft) S 180 0 min 13,5 C 17,6 C 0,0 km/h (0 Bft)
08.07.2021 08:40 15,5 C 21,1 C 16,6 C 17,7 C 17,7 C 2,2 C 89 % 93 % 1019,5 hPa 0,0 l/m 0,0 km/h (0 Bft) S 180 0 min 13,7 C 17,7 C 0,0 km/h (0 Bft)
08.07.2021 08:45 15,5 C 21,1 C 16,7 C 18,0 C 18,0 C 2,5 C 88 % 93 % 1019,5 hPa 0,0 l/m 0,0 km/h (0 Bft) S 180 0 min 13,5 C 18,0 C 0,0 km/h (0 Bft)
08.07.2021 08:50 15,6 C 21,1 C 16,8 C 18,1 C 18,1 C 2,5 C 88 % 93 % 1019,5 hPa 0,0 l/m 0,0 km/h (0 Bft) S 180 0 min 13,6 C 18,1 C 0,0 km/h (0 Bft)
08.07.2021 08:55 15,6 C 21,1 C 16,9 C 18,2 C 18,2 C 2,6 C 88 % 93 % 1019,4 hPa 0,0 l/m 0,0 km/h (0 Bft) S 180 0 min 13,6 C 18,2 C 0,0 km/h (0 Bft)
08.07.2021 09:00 15,7 C 21,2 C 16,9 C 18,3 C 18,3 C 2,6 C 88 % 93 % 1019,4 hPa 0,0 l/m 0,0 km/h (0 Bft) S-SW 202 0 min 13,7 C 18,3 C 0,0 km/h (0 Bft)
08.07.2021 09:05 15,9 C 21,2 C 17,0 C 18,4 C 18,4 C 2,5 C 88 % 93 % 1019,4 hPa 0,0 l/m 0,0 km/h (0 Bft) S 180 0 min 13,9 C 18,4 C 0,0 km/h (0 Bft)
08.07.2021 09:10 16,0 C 21,2 C 17,1 C 18,5 C 18,5 C 2,5 C 88 % 93 % 1019,4 hPa 0,0 l/m 0,0 km/h (0 Bft) S 180 0 min 14,0 C 18,5 C 0,0 km/h (0 Bft)
08.07.2021 09:15 16,1 C 21,2 C 17,1 C 18,8 C 18,8 C 2,7 C 88 % 93 % 1019,7 hPa 0,0 l/m 0,0 km/h (0 Bft) S 180 0 min 14,1 C 18,8 C 0,0 km/h (0 Bft)
08.07.2021 09:20 16,3 C 21,2 C 17,1 C 18,9 C 18,9 C 2,6 C 89 % 92 % 1019,7 hPa 0,0 l/m 0,0 km/h (0 Bft) S 180 0 min 14,5 C 18,9 C 0,0 km/h (0 Bft)
08.07.2021 09:25 16,3 C 21,2 C 17,2 C 19,0 C 19,0 C 2,7 C 88 % 92 % 1019,7 hPa 0,0 l/m 0,0 km/h (0 Bft) S 180 0 min 14,3 C 19,0 C 0,0 km/h (0 Bft)
08.07.2021 09:30 16,5 C 21,2 C 17,3 C 19,2 C 19,2 C 2,7 C 89 % 92 % 1019,7 hPa 0,0 l/m 0,0 km/h (0 Bft) S 180 0 min 14,7 C 19,2 C 0,0 km/h (0 Bft)
08.07.2021 09:35 16,4 C 21,2 C 17,3 C 19,2 C 19,2 C 2,8 C 88 % 92 % 1020,6 hPa 0,0 l/m 0,0 km/h (0 Bft) S 180 0 min 14,4 C 19,2 C 0,0 km/h (0 Bft)
08.07.2021 09:40 16,5 C 21,2 C 17,3 C 19,2 C 19,2 C 2,7 C 89 % 92 % 1020,6 hPa 0,0 l/m 0,0 km/h (0 Bft) S 180 0 min 14,7 C 19,2 C 0,0 km/h (0 Bft)
08.07.2021 09:45 16,6 C 21,2 C 17,4 C 19,2 C 19,2 C 2,6 C 89 % 92 % 1020,6 hPa 0,0 l/m 0,0 km/h (0 Bft) S 180 0 min 14,8 C 19,2 C 0,0 km/h (0 Bft)
08.07.2021 09:50 16,8 C 21,2 C 17,5 C 19,2 C 19,2 C 2,4 C 89 % 92 % 1020,6 hPa 0,0 l/m 0,0 km/h (0 Bft) S 180 0 min 15,0 C 19,2 C 0,0 km/h (0 Bft)
08.07.2021 09:55 16,8 C 21,1 C 17,5 C 19,1 C 19,1 C 2,3 C 89 % 92 % 1019,8 hPa 0,0 l/m 0,0 km/h (0 Bft) O-SO 112 0 min 15,0 C 19,1 C 1,8 km/h (1 Bft)
08.07.2021 10:00 16,9 C 21,1 C 17,7 C 19,1 C 19,1 C 2,2 C 89 % 92 % 1019,8 hPa 0,0 l/m 0,0 km/h (0 Bft) O-SO 112 0 min 15,1 C 19,1 C 0,0 km/h (0 Bft)
08.07.2021 10:05 16,9 C 21,1 C 17,8 C 19,3 C 19,3 C 2,4 C 89 % 93 % 1019,8 hPa 0,0 l/m 0,0 km/h (0 Bft) O-SO 112 0 min 15,1 C 19,3 C 0,0 km/h (0 Bft)
08.07.2021 10:10 16,8 C 21,1 C 17,9 C 19,3 C 19,3 C 2,5 C 89 % 93 % 1019,8 hPa 0,0 l/m 0,0 km/h (0 Bft) O-SO 112 0 min 15,0 C 19,3 C 0,0 km/h (0 Bft)
08.07.2021 10:15 16,8 C 21,1 C 17,9 C 19,4 C 19,4 C 2,6 C 88 % 93 % 1019,9 hPa 0,0 l/m 0,3 km/h (0 Bft) O-SO 112 0 min 14,8 C 19,4 C 2,1 km/h (1 Bft)
08.07.2021 10:20 16,8 C 21,1 C 18,0 C 19,2 C 19,2 C 2,4 C 88 % 93 % 1019,9 hPa 0,0 l/m 0,6 km/h (0 Bft) O-NO 67 0 min 14,8 C 19,2 C 0,0 km/h (0 Bft)
08.07.2021 10:25 17,1 C 21,1 C 18,1 C 19,5 C 19,5 C 2,4 C 88 % 93 % 1019,9 hPa 0,0 l/m 0,3 km/h (0 Bft) O 90 0 min 15,1 C 19,5 C 0,0 km/h (0 Bft)
08.07.2021 10:30 17,1 C 21,1 C 18,1 C 19,7 C 19,7 C 2,6 C 88 % 93 % 1019,9 hPa 0,0 l/m 0,0 km/h (0 Bft) O-NO 67 0 min 15,1 C 19,7 C 0,0 km/h (0 Bft)
08.07.2021 10:35 17,2 C 21,1 C 18,3 C 20,0 C 20,0 C 2,8 C 88 % 92 % 1019,8 hPa 0,0 l/m 0,2 km/h (0 Bft) O-NO 67 0 min 15,2 C 20,0 C 1,8 km/h (1 Bft)
08.07.2021 10:40 17,2 C 21,2 C 18,2 C 19,9 C 19,9 C 2,7 C 88 % 92 % 1019,8 hPa 0,0 l/m 0,2 km/h (0 Bft) O-NO 67 0 min 15,2 C 19,9 C 0,0 km/h (0 Bft)
08.07.2021 10:45 17,3 C 21,1 C 18,3 C 20,1 C 20,1 C 2,8 C 88 % 92 % 1019,8 hPa 0,0 l/m 0,2 km/h (0 Bft) N-NO 22 0 min 15,3 C 20,1 C 0,0 km/h (0 Bft)
08.07.2021 10:50 17,3 C 21,0 C 18,3 C 20,2 C 20,2 C 2,9 C 88 % 92 % 1019,8 hPa 0,0 l/m 0,0 km/h (0 Bft) N-NO 22 0 min 15,3 C 20,2 C 0,0 km/h (0 Bft)
08.07.2021 10:55 17,3 C 21,1 C 18,2 C 20,2 C 20,2 C 2,9 C 88 % 92 % 1019,7 hPa 0,0 l/m 0,0 km/h (0 Bft) O-SO 112 0 min 15,3 C 20,2 C 0,0 km/h (0 Bft)
08.07.2021 11:00 17,4 C 21,1 C 18,3 C 20,0 C 20,0 C 2,6 C 88 % 92 % 1019,7 hPa 0,0 l/m 0,0 km/h (0 Bft) NO 45 0 min 15,4 C 20,0 C 0,0 km/h (0 Bft)
08.07.2021 11:05 17,4 C 21,2 C 18,3 C 19,3 C 19,3 C 1,9 C 87 % 92 % 1019,7 hPa 0,0 l/m 0,3 km/h (0 Bft) O-NO 67 0 min 15,2 C 19,3 C 2,6 km/h (1 Bft)
08.07.2021 11:10 17,5 C 21,2 C 18,2 C 18,8 C 18,8 C 1,3 C 87 % 92 % 1019,7 hPa 0,0 l/m 0,5 km/h (0 Bft) O 90 0 min 15,3 C 18,8 C 0,0 km/h (0 Bft)
08.07.2021 11:15 17,5 C 21,2 C 18,1 C 18,6 C 18,6 C 1,1 C 87 % 92 % 1019,7 hPa 0,0 l/m 0,3 km/h (0 Bft) S-SO 157 0 min 15,3 C 18,6 C 0,0 km/h (0 Bft)
08.07.2021 11:20 17,6 C 21,2 C 18,1 C 18,6 C 18,6 C 1,0 C 87 % 92 % 1019,7 hPa 0,0 l/m 0,2 km/h (0 Bft) W 270 0 min 15,4 C 18,6 C 0,0 km/h (0 Bft)
08.07.2021 11:25 17,7 C 21,2 C 18,2 C 18,6 C 18,6 C 0,9 C 87 % 92 % 1019,7 hPa 0,0 l/m 0,8 km/h (0 Bft) W 270 0 min 15,5 C 18,6 C 5,3 km/h (1 Bft)
08.07.2021 11:30 17,9 C 21,2 C 18,2 C 18,6 C 18,6 C 0,7 C 87 % 92 % 1019,7 hPa 0,0 l/m 0,8 km/h (0 Bft) NW 315 0 min 15,7 C 18,6 C 0,0 km/h (0 Bft)
08.07.2021 11:35 17,9 C 21,2 C 18,3 C 18,9 C 18,9 C 1,0 C 87 % 92 % 1019,5 hPa 0,0 l/m 0,6 km/h (0 Bft) W 270 0 min 15,7 C 18,9 C 2,9 km/h (1 Bft)
08.07.2021 11:40 18,1 C 21,2 C 18,3 C 18,9 C 18,9 C 0,8 C 87 % 92 % 1019,5 hPa 0,0 l/m 0,3 km/h (0 Bft) SW 225 0 min 15,9 C 18,9 C 0,0 km/h (0 Bft)
08.07.2021 11:45 18,1 C 21,2 C 18,3 C 18,9 C 18,9 C 0,8 C 87 % 92 % 1019,5 hPa 0,0 l/m 0,3 km/h (0 Bft) NW 315 0 min 15,9 C 18,9 C 0,0 km/h (0 Bft)
08.07.2021 11:50 18,3 C 21,2 C 18,3 C 19,0 C 19,0 C 0,7 C 87 % 92 % 1019,5 hPa 0,0 l/m 0,2 km/h (0 Bft) W-SW 247 0 min 16,1 C 19,0 C 0,0 km/h (0 Bft)
08.07.2021 11:55 18,3 C 21,1 C 18,3 C 19,2 C 19,2 C 0,9 C 87 % 92 % 1019,6 hPa 0,0 l/m 0,2 km/h (0 Bft) NW 315 0 min 16,1 C 19,2 C 0,0 km/h (0 Bft)
08.07.2021 12:00 18,4 C 21,2 C 18,3 C 19,2 C 19,2 C 0,8 C 87 % 92 % 1019,6 hPa 0,0 l/m 0,0 km/h (0 Bft) NW 315 0 min 16,2 C 19,2 C 0,0 km/h (0 Bft)
08.07.2021 12:05 18,4 C 21,2 C 18,2 C 19,2 C 19,2 C 0,8 C 87 % 92 % 1019,6 hPa 0,0 l/m 0,0 km/h (0 Bft) W-SW 247 0 min 16,2 C 19,2 C 0,0 km/h (0 Bft)
08.07.2021 12:10 18,5 C 21,2 C 18,1 C 19,0 C 19,0 C 0,5 C 87 % 92 % 1019,6 hPa 0,0 l/m 0,0 km/h (0 Bft) W-SW 247 0 min 16,3 C 19,0 C 0,0 km/h (0 Bft)
08.07.2021 12:15 18,7 C 21,2 C 18,1 C 18,9 C 18,9 C 0,2 C 87 % 92 % 1019,8 hPa 0,0 l/m 0,0 km/h (0 Bft) N-NW 337 0 min 16,5 C 18,9 C 0,0 km/h (0 Bft)
08.07.2021 12:20 18,7 C 21,2 C 18,1 C 18,8 C 18,8 C 0,1 C 87 % 92 % 1019,8 hPa 0,0 l/m 0,0 km/h (0 Bft) NW 315 0 min 16,5 C 18,8 C 0,0 km/h (0 Bft)
08.07.2021 12:25 18,6 C 21,2 C 18,1 C 18,8 C 18,8 C 0,2 C 87 % 92 % 1019,8 hPa 0,0 l/m 0,0 km/h (0 Bft) N-NW 337 0 min 16,4 C 18,8 C 0,0 km/h (0 Bft)
08.07.2021 12:30 18,6 C 21,2 C 18,0 C 18,8 C 18,8 C 0,2 C 87 % 92 % 1019,8 hPa 0,0 l/m 0,0 km/h (0 Bft) NW 315 0 min 16,4 C 18,8 C 0,0 km/h (0 Bft)
08.07.2021 12:35 18,6 C 21,2 C 18,1 C 18,6 C 18,5 C 0,0 C 87 % 92 % 1019,8 hPa 0,0 l/m 0,3 km/h (0 Bft) N-NW 337 0 min 16,4 C 18,5 C 0,0 km/h (0 Bft)
08.07.2021 12:40 18,7 C 21,2 C 17,9 C 18,6 C 18,3 C 0,0 C 87 % 92 % 1019,8 hPa 0,7 l/m 0,3 km/h (0 Bft) NW 315 0 min 16,5 C 18,3 C 0,0 km/h (0 Bft)
08.07.2021 12:45 18,6 C 21,2 C 17,8 C 18,5 C 18,2 C 0,0 C 87 % 93 % 1019,8 hPa 0,0 l/m 0,0 km/h (0 Bft) W 270 0 min 16,4 C 18,2 C 0,0 km/h (0 Bft)
08.07.2021 12:50 18,7 C 21,2 C 17,7 C 18,5 C 18,1 C 0,0 C 87 % 92 % 1019,8 hPa 0,0 l/m 0,0 km/h (0 Bft) W-SW 247 0 min 16,5 C 18,1 C 0,0 km/h (0 Bft)
08.07.2021 12:55 18,5 C 21,2 C 17,7 C 18,4 C 18,1 C 0,0 C 87 % 92 % 1019,7 hPa 0,0 l/m 0,0 km/h (0 Bft) W-SW 247 0 min 16,3 C 18,1 C 0,0 km/h (0 Bft)
08.07.2021 13:00 18,5 C 21,2 C 17,6 C 18,4 C 18,1 C 0,0 C 87 % 92 % 1019,7 hPa 0,0 l/m 0,0 km/h (0 Bft) NW 315 0 min 16,3 C 18,1 C 0,0 km/h (0 Bft)
08.07.2021 13:05 18,5 C 21,2 C 17,6 C 18,4 C 18,1 C 0,0 C 87 % 92 % 1019,7 hPa 0,0 l/m 0,0 km/h (0 Bft) W 270 0 min 16,3 C 18,1 C 0,0 km/h (0 Bft)
08.07.2021 13:10 18,4 C 21,2 C 17,7 C 18,3 C 18,2 C 0,0 C 87 % 92 % 1019,7 hPa 0,7 l/m 0,2 km/h (0 Bft) W 270 0 min 16,2 C 18,2 C 0,0 km/h (0 Bft)
08.07.2021 13:15 18,4 C 21,2 C 17,5 C 18,3 C 18,2 C 0,0 C 87 % 92 % 1019,1 hPa 0,0 l/m 1,1 km/h (1 Bft) W-SW 247 0 min 16,2 C 18,2 C 6,4 km/h (2 Bft)
08.07.2021 13:20 18,2 C 21,1 C 17,3 C 18,1 C 17,9 C 0,0 C 87 % 92 % 1019,1 hPa 0,0 l/m 1,4 km/h (1 Bft) O-SO 112 0 min 16,0 C 17,9 C 0,0 km/h (0 Bft)
08.07.2021 13:25 18,0 C 21,0 C 17,2 C 17,9 C 17,7 C 0,0 C 87 % 92 % 1019,1 hPa 0,0 l/m 1,3 km/h (1 Bft) O-NO 67 0 min 15,8 C 17,7 C 3,7 km/h (1 Bft)
08.07.2021 13:30 17,9 C 21,0 C 17,1 C 17,8 C 17,5 C 0,0 C 87 % 92 % 1019,1 hPa 0,0 l/m 0,8 km/h (0 Bft) O-NO 67 0 min 15,7 C 17,5 C 0,0 km/h (0 Bft)
08.07.2021 13:35 17,8 C 21,1 C 16,9 C 17,6 C 17,3 C 0,0 C 87 % 93 % 1019,2 hPa 0,0 l/m 0,5 km/h (0 Bft) O-SO 112 0 min 15,6 C 17,3 C 0,0 km/h (0 Bft)
08.07.2021 13:40 17,7 C 21,0 C 16,8 C 17,5 C 17,2 C 0,0 C 87 % 93 % 1019,2 hPa 0,0 l/m 0,0 km/h (0 Bft) W-NW 292 0 min 15,5 C 17,2 C 2,4 km/h (1 Bft)
08.07.2021 13:45 17,6 C 20,9 C 16,8 C 17,5 C 17,3 C 0,0 C 87 % 93 % 1019,2 hPa 0,0 l/m 0,0 km/h (0 Bft) NW 315 0 min 15,4 C 17,3 C 0,0 km/h (0 Bft)
08.07.2021 13:50 17,7 C 20,9 C 16,8 C 17,6 C 17,3 C 0,0 C 87 % 93 % 1019,2 hPa 0,0 l/m 0,0 km/h (0 Bft) NW 315 0 min 15,5 C 17,3 C 0,0 km/h (0 Bft)
08.07.2021 13:55 17,6 C 20,8 C 16,8 C 17,5 C 17,4 C 0,0 C 87 % 93 % 1019,5 hPa 0,0 l/m 0,2 km/h (0 Bft) N-NW 337 0 min 15,4 C 17,4 C 1,9 km/h (1 Bft)
08.07.2021 14:00 17,6 C 20,8 C 16,8 C 17,5 C 17,3 C 0,0 C 87 % 93 % 1019,5 hPa 0,0 l/m 0,2 km/h (0 Bft) NW 315 0 min 15,4 C 17,3 C 0,0 km/h (0 Bft)
08.07.2021 14:05 17,5 C 20,8 C 16,8 C 17,4 C 17,3 C 0,0 C 87 % 93 % 1019,5 hPa 0,0 l/m 0,0 km/h (0 Bft) W-SW 247 0 min 15,3 C 17,3 C 0,0 km/h (0 Bft)
08.07.2021 14:10 17,5 C 20,8 C 16,8 C 17,4 C 17,2 C 0,0 C 87 % 93 % 1019,5 hPa 0,0 l/m 0,0 km/h (0 Bft) N-NO 22 0 min 15,3 C 17,2 C 0,0 km/h (0 Bft)
08.07.2021 14:15 17,4 C 20,8 C 16,9 C 17,3 C 17,2 C 0,0 C 87 % 92 % 1019,4 hPa 0,0 l/m 0,0 km/h (0 Bft) W-SW 247 0 min 15,2 C 17,2 C 0,0 km/h (0 Bft)
08.07.2021 14:20 17,5 C 20,8 C 16,8 C 17,4 C 17,2 C 0,0 C 87 % 92 % 1019,4 hPa 0,0 l/m 0,0 km/h (0 Bft) W-SW 247 0 min 15,3 C 17,2 C 0,0 km/h (0 Bft)
08.07.2021 14:25 17,3 C 20,8 C 16,7 C 17,3 C 17,2 C 0,0 C 87 % 93 % 1019,4 hPa 0,0 l/m 0,5 km/h (0 Bft) O-NO 67 0 min 15,1 C 17,2 C 0,0 km/h (0 Bft)
08.07.2021 14:30 17,2 C 20,8 C 16,7 C 17,2 C 17,2 C 0,0 C 87 % 93 % 1019,4 hPa 0,0 l/m 0,5 km/h (0 Bft) W-NW 292 0 min 15,0 C 17,2 C 0,0 km/h (0 Bft)
08.07.2021 14:35 17,2 C 20,7 C 16,6 C 17,1 C 17,0 C 0,0 C 87 % 92 % 1018,9 hPa 2,1 l/m 0,2 km/h (0 Bft) NO 45 0 min 15,0 C 17,0 C 2,1 km/h (1 Bft)
08.07.2021 14:40 17,1 C 20,7 C 16,6 C 17,0 C 16,9 C 0,0 C 87 % 92 % 1018,9 hPa 0,7 l/m 0,8 km/h (0 Bft) O-NO 67 0 min 14,9 C 16,9 C 0,0 km/h (0 Bft)
08.07.2021 14:45 16,9 C 20,7 C 16,6 C 16,9 C 16,9 C 0,0 C 87 % 92 % 1018,9 hPa 0,0 l/m 0,8 km/h (0 Bft) S-SW 202 0 min 14,7 C 16,9 C 0,0 km/h (0 Bft)
08.07.2021 14:50 16,9 C 20,7 C 16,6 C 16,9 C 16,9 C 0,0 C 87 % 92 % 1018,9 hPa 0,7 l/m 0,0 km/h (0 Bft) W 270 0 min 14,7 C 16,9 C 0,0 km/h (0 Bft)
08.07.2021 14:55 16,8 C 20,6 C 16,5 C 16,8 C 16,8 C 0,0 C 87 % 92 % 1018,8 hPa 0,0 l/m 0,0 km/h (0 Bft) N-NW 337 0 min 14,6 C 16,8 C 0,0 km/h (0 Bft)
08.07.2021 15:00 16,7 C 20,6 C 16,5 C 16,8 C 16,8 C 0,1 C 87 % 92 % 1018,8 hPa 0,0 l/m 0,0 km/h (0 Bft) N-NO 22 0 min 14,5 C 16,8 C 0,0 km/h (0 Bft)
08.07.2021 15:05 16,7 C 20,6 C 16,5 C 16,8 C 16,8 C 0,1 C 88 % 92 % 1018,8 hPa 0,7 l/m 0,0 km/h (0 Bft) N-NO 22 0 min 14,7 C 16,8 C 0,0 km/h (0 Bft)
08.07.2021 15:10 16,7 C 20,6 C 16,5 C 16,9 C 16,9 C 0,2 C 87 % 92 % 1018,8 hPa 0,0 l/m 0,0 km/h (0 Bft) N-NO 22 0 min 14,5 C 16,9 C 0,0 km/h (0 Bft)
08.07.2021 15:15 16,5 C 20,6 C 16,6 C 16,9 C 16,9 C 0,4 C 88 % 91 % 1019,3 hPa 0,0 l/m 0,2 km/h (0 Bft) O-NO 67 0 min 14,5 C 16,9 C 0,0 km/h (0 Bft)
08.07.2021 15:20 16,5 C 20,6 C 16,6 C 17,0 C 17,0 C 0,5 C 88 % 91 % 1019,3 hPa 0,0 l/m 0,3 km/h (0 Bft) O-NO 67 0 min 14,5 C 17,0 C 2,1 km/h (1 Bft)
08.07.2021 15:25 16,4 C 21,0 C 16,7 C 17,2 C 17,2 C 0,8 C 88 % 92 % 1019,3 hPa 0,7 l/m 0,6 km/h (0 Bft) NO 45 0 min 14,4 C 17,2 C 0,0 km/h (0 Bft)
08.07.2021 15:30 16,4 C 21,1 C 16,9 C 17,4 C 17,4 C 1,0 C 88 % 91 % 1019,3 hPa 0,7 l/m 0,8 km/h (0 Bft) SW 225 0 min 14,4 C 17,4 C 2,7 km/h (1 Bft)
08.07.2021 15:35 16,4 C 21,1 C 17,0 C 17,8 C 17,8 C 1,4 C 88 % 91 % 1018,6 hPa 0,0 l/m 0,6 km/h (0 Bft) W 270 0 min 14,4 C 17,8 C 0,0 km/h (0 Bft)
08.07.2021 15:40 16,4 C 21,1 C 17,2 C 17,9 C 17,9 C 1,5 C 88 % 91 % 1018,6 hPa 0,0 l/m 0,6 km/h (0 Bft) W-NW 292 0 min 14,4 C 17,9 C 0,0 km/h (0 Bft)
08.07.2021 15:45 16,5 C 21,1 C 17,3 C 18,3 C 18,3 C 1,8 C 88 % 91 % 1018,6 hPa 0,0 l/m 0,2 km/h (0 Bft) NW 315 0 min 14,5 C 18,3 C 0,0 km/h (0 Bft)
08.07.2021 15:50 16,7 C 21,1 C 17,5 C 18,7 C 18,7 C 2,0 C 88 % 91 % 1018,6 hPa 0,0 l/m 0,5 km/h (0 Bft) NW 315 0 min 14,7 C 18,7 C 2,4 km/h (1 Bft)
08.07.2021 15:55 16,7 C 21,1 C 17,7 C 19,1 C 19,1 C 2,4 C 88 % 91 % 1018,9 hPa 0,0 l/m 0,5 km/h (0 Bft) NO 45 0 min 14,7 C 19,1 C 0,0 km/h (0 Bft)
08.07.2021 16:00 16,8 C 21,0 C 17,7 C 19,3 C 19,3 C 2,5 C 88 % 91 % 1018,9 hPa 0,0 l/m 0,3 km/h (0 Bft) SO 135 0 min 14,8 C 19,3 C 0,0 km/h (0 Bft)
08.07.2021 16:05 16,8 C 21,0 C 17,7 C 19,5 C 19,5 C 2,7 C 88 % 91 % 1018,9 hPa 0,0 l/m 0,3 km/h (0 Bft) W 270 0 min 14,8 C 19,5 C 2,6 km/h (1 Bft)
08.07.2021 16:10 16,9 C 20,9 C 17,8 C 19,4 C 19,4 C 2,5 C 88 % 91 % 1018,9 hPa 0,0 l/m 0,8 km/h (0 Bft) S 180 0 min 14,9 C 19,4 C 0,0 km/h (0 Bft)
08.07.2021 16:15 17,0 C 20,9 C 17,9 C 19,4 C 19,4 C 2,4 C 88 % 91 % 1018,7 hPa 0,0 l/m 0,8 km/h (0 Bft) S-SO 157 0 min 15,0 C 19,4 C 0,0 km/h (0 Bft)
08.07.2021 16:20 17,1 C 20,9 C 18,0 C 19,5 C 19,5 C 2,4 C 88 % 91 % 1018,7 hPa 0,0 l/m 0,0 km/h (0 Bft) NW 315 0 min 15,1 C 19,5 C 0,0 km/h (0 Bft)
08.07.2021 16:25 17,1 C 20,9 C 18,1 C 19,7 C 19,7 C 2,6 C 88 % 91 % 1018,7 hPa 0,0 l/m 0,3 km/h (0 Bft) NW 315 0 min 15,1 C 19,7 C 7,7 km/h (2 Bft)
08.07.2021 16:30 17,3 C 20,9 C 18,0 C 20,2 C 20,2 C 2,9 C 88 % 91 % 1018,7 hPa 0,0 l/m 0,6 km/h (0 Bft) NW 315 0 min 15,3 C 20,2 C 0,0 km/h (0 Bft)
08.07.2021 16:35 17,2 C 20,9 C 17,9 C 20,3 C 20,3 C 3,1 C 88 % 91 % 1018,6 hPa 0,0 l/m 0,3 km/h (0 Bft) SO 135 0 min 15,2 C 20,3 C 0,0 km/h (0 Bft)
08.07.2021 16:40 17,1 C 20,9 C 17,9 C 20,4 C 20,4 C 3,3 C 88 % 91 % 1018,6 hPa 0,0 l/m 0,2 km/h (0 Bft) W-SW 247 5 min 15,1 C 20,4 C 0,0 km/h (0 Bft)
08.07.2021 16:45 17,2 C 20,9 C 18,0 C 20,8 C 20,8 C 3,6 C 88 % 91 % 1018,6 hPa 0,0 l/m 0,0 km/h (0 Bft) N-NW 337 5 min 15,2 C 20,8 C 0,0 km/h (0 Bft)
08.07.2021 16:50 17,3 C 20,9 C 18,1 C 21,1 C 21,1 C 3,8 C 88 % 91 % 1018,6 hPa 0,0 l/m 0,0 km/h (0 Bft) O-SO 112 5 min 15,3 C 21,1 C 0,0 km/h (0 Bft)
08.07.2021 16:55 17,3 C 20,9 C 17,9 C 21,3 C 21,3 C 4,0 C 88 % 92 % 1018,1 hPa 0,0 l/m 0,0 km/h (0 Bft) N-NO 22 5 min 15,3 C 21,3 C 0,0 km/h (0 Bft)
08.07.2021 17:00 17,3 C 20,9 C 17,8 C 21,0 C 21,0 C 3,7 C 88 % 92 % 1018,1 hPa 0,0 l/m 0,2 km/h (0 Bft) W-NW 292 5 min 15,3 C 21,0 C 0,0 km/h (0 Bft)
08.07.2021 17:05 17,3 C 20,9 C 17,8 C 20,5 C 20,5 C 3,2 C 88 % 92 % 1018,1 hPa 0,0 l/m 0,3 km/h (0 Bft) N-NO 22 0 min 15,3 C 20,5 C 0,0 km/h (0 Bft)
08.07.2021 17:10 17,2 C 20,9 C 17,9 C 20,7 C 20,7 C 3,5 C 88 % 92 % 1018,1 hPa 0,0 l/m 0,3 km/h (0 Bft) W 270 5 min 15,2 C 20,7 C 2,3 km/h (1 Bft)
08.07.2021 17:15 17,3 C 20,9 C 18,3 C 21,1 C 21,1 C 3,8 C 88 % 92 % 1018,2 hPa 0,0 l/m 0,3 km/h (0 Bft) W 270 5 min 15,3 C 21,1 C 0,0 km/h (0 Bft)
08.07.2021 17:20 17,4 C 20,9 C 18,3 C 21,2 C 21,2 C 3,8 C 88 % 91 % 1018,2 hPa 0,0 l/m 0,5 km/h (0 Bft) NW 315 5 min 15,4 C 21,2 C 0,0 km/h (0 Bft)
08.07.2021 17:25 17,5 C 20,9 C 18,1 C 21,2 C 21,2 C 3,7 C 88 % 92 % 1018,2 hPa 0,0 l/m 0,2 km/h (0 Bft) O-SO 112 5 min 15,5 C 21,2 C 0,0 km/h (0 Bft)
08.07.2021 17:30 17,5 C 20,9 C 18,3 C 21,3 C 21,3 C 3,8 C 88 % 92 % 1018,2 hPa 0,0 l/m 0,6 km/h (0 Bft) N-NO 22 5 min 15,5 C 21,3 C 0,0 km/h (0 Bft)
08.07.2021 17:35 17,5 C 20,9 C 18,3 C 21,4 C 21,4 C 3,9 C 88 % 92 % 1017,9 hPa 0,0 l/m 0,8 km/h (0 Bft) N-NO 22 5 min 15,5 C 21,4 C 1,6 km/h (1 Bft)
08.07.2021 17:40 17,5 C 20,9 C 18,2 C 21,5 C 21,5 C 4,0 C 88 % 92 % 1017,9 hPa 0,0 l/m 0,3 km/h (0 Bft) O-NO 67 5 min 15,5 C 21,5 C 0,0 km/h (0 Bft)
08.07.2021 17:45 17,5 C 20,9 C 18,4 C 22,0 C 22,0 C 4,5 C 88 % 92 % 1017,9 hPa 0,0 l/m 0,6 km/h (0 Bft) NW 315 5 min 15,5 C 22,0 C 2,7 km/h (1 Bft)
08.07.2021 17:50 17,5 C 20,9 C 18,3 C 22,8 C 22,8 C 5,3 C 88 % 92 % 1017,9 hPa 0,0 l/m 1,1 km/h (1 Bft) W 270 5 min 15,5 C 22,8 C 2,1 km/h (1 Bft)
08.07.2021 17:55 17,6 C 20,9 C 18,3 C 23,0 C 23,0 C 5,4 C 88 % 92 % 1017,5 hPa 0,0 l/m 1,4 km/h (1 Bft) O-SO 112 5 min 15,6 C 23,0 C 0,0 km/h (0 Bft)
08.07.2021 18:00 17,6 C 20,9 C 18,2 C 22,5 C 22,5 C 4,9 C 88 % 92 % 1017,5 hPa 0,0 l/m 1,0 km/h (0 Bft) SO 135 5 min 15,6 C 22,5 C 0,0 km/h (0 Bft)
08.07.2021 18:05 17,6 C 20,9 C 18,2 C 21,8 C 21,8 C 4,2 C 87 % 92 % 1017,5 hPa 0,0 l/m 0,3 km/h (0 Bft) O-NO 67 5 min 15,4 C 21,8 C 0,0 km/h (0 Bft)
08.07.2021 18:10 17,5 C 20,9 C 18,0 C 21,4 C 21,4 C 3,9 C 87 % 92 % 1017,5 hPa 0,0 l/m 0,2 km/h (0 Bft) N-NW 337 5 min 15,3 C 21,4 C 0,0 km/h (0 Bft)
08.07.2021 18:15 17,5 C 20,9 C 18,0 C 20,9 C 20,9 C 3,4 C 87 % 92 % 1017,7 hPa 0,0 l/m 0,2 km/h (0 Bft) O 90 5 min 15,3 C 20,9 C 0,0 km/h (0 Bft)
08.07.2021 18:20 17,5 C 20,9 C 17,9 C 20,7 C 20,7 C 3,2 C 87 % 92 % 1017,7 hPa 0,0 l/m 0,0 km/h (0 Bft) NO 45 0 min 15,3 C 20,7 C 0,0 km/h (0 Bft)
08.07.2021 18:25 17,5 C 20,9 C 18,1 C 20,6 C 20,6 C 3,1 C 88 % 92 % 1017,7 hPa 0,0 l/m 0,2 km/h (0 Bft) O-NO 67 0 min 15,5 C 20,6 C 1,6 km/h (1 Bft)
08.07.2021 18:30 17,5 C 20,9 C 18,2 C 20,7 C 20,7 C 3,2 C 87 % 92 % 1017,7 hPa 0,0 l/m 0,3 km/h (0 Bft) O-NO 67 0 min 15,3 C 20,7 C 1,9 km/h (1 Bft)
08.07.2021 18:35 17,6 C 20,9 C 18,3 C 22,1 C 22,1 C 4,5 C 87 % 92 % 1017,1 hPa 0,0 l/m 1,8 km/h (1 Bft) O-NO 67 5 min 15,4 C 22,1 C 4,3 km/h (1 Bft)
08.07.2021 18:40 17,7 C 21,0 C 18,2 C 22,6 C 22,6 C 4,9 C 87 % 92 % 1017,1 hPa 0,0 l/m 2,7 km/h (1 Bft) O-NO 67 5 min 15,5 C 22,6 C 3,2 km/h (1 Bft)
08.07.2021 18:45 17,7 C 21,0 C 18,2 C 22,8 C 22,8 C 5,1 C 87 % 92 % 1017,1 hPa 0,0 l/m 2,4 km/h (1 Bft) O 90 5 min 15,5 C 22,8 C 3,4 km/h (1 Bft)
08.07.2021 18:50 17,6 C 21,0 C 18,1 C 22,6 C 22,6 C 5,0 C 87 % 93 % 1017,1 hPa 0,0 l/m 2,4 km/h (1 Bft) O-NO 67 5 min 15,4 C 22,6 C 2,7 km/h (1 Bft)
08.07.2021 18:55 17,6 C 21,0 C 18,0 C 21,9 C 21,9 C 4,3 C 87 % 93 % 1016,3 hPa 0,0 l/m 1,9 km/h (1 Bft) NO 45 5 min 15,4 C 21,9 C 2,7 km/h (1 Bft)
08.07.2021 19:00 17,6 C 21,0 C 18,0 C 21,3 C 21,3 C 3,7 C 87 % 93 % 1016,3 hPa 0,0 l/m 1,1 km/h (1 Bft) NO 45 5 min 15,4 C 21,3 C 0,0 km/h (0 Bft)
08.07.2021 19:05 17,6 C 21,0 C 17,9 C 20,6 C 20,6 C 3,0 C 87 % 93 % 1016,3 hPa 0,0 l/m 0,6 km/h (0 Bft) O-NO 67 0 min 15,4 C 20,6 C 0,0 km/h (0 Bft)
08.07.2021 19:10 17,6 C 20,9 C 17,9 C 20,4 C 20,4 C 2,8 C 87 % 93 % 1016,3 hPa 0,0 l/m 0,3 km/h (0 Bft) O-SO 112 0 min 15,4 C 20,4 C 1,9 km/h (1 Bft)
08.07.2021 19:15 17,6 C 20,9 C 17,9 C 20,3 C 20,3 C 2,7 C 87 % 93 % 1016,5 hPa 0,0 l/m 0,2 km/h (0 Bft) SO 135 0 min 15,4 C 20,3 C 0,0 km/h (0 Bft)
08.07.2021 19:20 17,6 C 20,9 C 17,9 C 20,5 C 20,5 C 2,9 C 87 % 92 % 1016,5 hPa 0,0 l/m 0,3 km/h (0 Bft) O-NO 67 5 min 15,4 C 20,5 C 2,3 km/h (1 Bft)
08.07.2021 19:25 17,6 C 20,9 C 17,9 C 20,4 C 20,4 C 2,8 C 87 % 93 % 1016,5 hPa 0,0 l/m 1,1 km/h (1 Bft) O 90 5 min 15,4 C 20,4 C 0,0 km/h (0 Bft)
08.07.2021 19:30 17,6 C 20,9 C 17,9 C 20,5 C 20,5 C 2,9 C 87 % 93 % 1016,5 hPa 0,0 l/m 1,1 km/h (1 Bft) O-NO 67 5 min 15,4 C 20,5 C 0,0 km/h (0 Bft)
08.07.2021 19:35 17,7 C 21,0 C 17,9 C 20,7 C 20,7 C 3,0 C 87 % 92 % 1016,5 hPa 0,0 l/m 0,5 km/h (0 Bft) N-NW 337 5 min 15,5 C 20,7 C 2,6 km/h (1 Bft)
08.07.2021 19:40 17,7 C 21,0 C 17,9 C 20,7 C 20,7 C 3,0 C 87 % 92 % 1016,5 hPa 0,0 l/m 0,3 km/h (0 Bft) O-NO 67 5 min 15,5 C 20,7 C 0,0 km/h (0 Bft)
08.07.2021 19:45 17,7 C 21,0 C 18,0 C 20,6 C 20,6 C 2,9 C 87 % 92 % 1016,5 hPa 0,0 l/m 0,5 km/h (0 Bft) N-NW 337 5 min 15,5 C 20,6 C 1,6 km/h (1 Bft)
08.07.2021 19:50 17,8 C 21,0 C 18,0 C 20,5 C 20,5 C 2,7 C 87 % 92 % 1016,5 hPa 0,0 l/m 0,2 km/h (0 Bft) W 270 5 min 15,6 C 20,5 C 0,0 km/h (0 Bft)
08.07.2021 19:55 17,9 C 21,0 C 18,1 C 20,4 C 20,4 C 2,5 C 87 % 92 % 1016,9 hPa 0,0 l/m 0,0 km/h (0 Bft) W 270 5 min 15,7 C 20,4 C 0,0 km/h (0 Bft)
08.07.2021 20:00 17,9 C 21,0 C 18,0 C 20,4 C 20,4 C 2,5 C 87 % 92 % 1016,9 hPa 0,0 l/m 0,0 km/h (0 Bft) W 270 5 min 15,7 C 20,4 C 0,0 km/h (0 Bft)
08.07.2021 20:05 17,8 C 21,0 C 17,9 C 20,0 C 20,0 C 2,2 C 87 % 92 % 1016,9 hPa 0,0 l/m 0,0 km/h (0 Bft) S-SW 202 5 min 15,6 C 20,0 C 0,0 km/h (0 Bft)
08.07.2021 20:10 17,8 C 21,0 C 17,9 C 19,8 C 19,8 C 2,0 C 87 % 92 % 1016,9 hPa 0,0 l/m 0,0 km/h (0 Bft) NW 315 5 min 15,6 C 19,8 C 0,0 km/h (0 Bft)
08.07.2021 20:15 17,9 C 21,0 C 17,8 C 19,6 C 19,6 C 1,7 C 87 % 92 % 1017,4 hPa 0,0 l/m 0,0 km/h (0 Bft) NW 315 5 min 15,7 C 19,6 C 0,0 km/h (0 Bft)
08.07.2021 20:20 17,9 C 21,0 C 17,8 C 19,4 C 19,4 C 1,5 C 87 % 92 % 1017,4 hPa 0,0 l/m 0,0 km/h (0 Bft) NW 315 5 min 15,7 C 19,4 C 0,0 km/h (0 Bft)
08.07.2021 20:25 17,9 C 21,0 C 17,8 C 19,2 C 19,2 C 1,3 C 87 % 92 % 1017,4 hPa 0,0 l/m 0,0 km/h (0 Bft) NW 315 5 min 15,7 C 19,2 C 0,0 km/h (0 Bft)
08.07.2021 20:30 17,8 C 20,9 C 17,7 C 19,1 C 19,1 C 1,3 C 87 % 92 % 1017,4 hPa 0,0 l/m 0,0 km/h (0 Bft) NW 315 5 min 15,6 C 19,1 C 0,0 km/h (0 Bft)
08.07.2021 20:35 17,7 C 20,9 C 17,7 C 18,9 C 18,9 C 1,2 C 87 % 92 % 1017,8 hPa 0,0 l/m 0,0 km/h (0 Bft) NW 315 5 min 15,5 C 18,9 C 0,0 km/h (0 Bft)
08.07.2021 20:40 17,7 C 20,9 C 17,7 C 18,8 C 18,8 C 1,1 C 87 % 92 % 1017,8 hPa 0,0 l/m 0,0 km/h (0 Bft) NW 315 5 min 15,5 C 18,8 C 0,0 km/h (0 Bft)
08.07.2021 20:45 17,7 C 20,9 C 17,7 C 18,7 C 18,7 C 1,0 C 87 % 92 % 1017,8 hPa 0,0 l/m 0,0 km/h (0 Bft) NW 315 5 min 15,5 C 18,7 C 0,0 km/h (0 Bft)
08.07.2021 20:50 17,7 C 21,0 C 17,8 C 18,7 C 18,7 C 1,0 C 87 % 92 % 1017,8 hPa 0,0 l/m 0,0 km/h (0 Bft) NW 315 5 min 15,5 C 18,7 C 0,0 km/h (0 Bft)
08.07.2021 20:55 17,7 C 21,0 C 17,8 C 18,7 C 18,7 C 1,0 C 87 % 92 % 1017,4 hPa 0,0 l/m 0,0 km/h (0 Bft) NW 315 5 min 15,5 C 18,7 C 0,0 km/h (0 Bft)
08.07.2021 21:00 17,7 C 21,0 C 17,8 C 18,6 C 18,6 C 0,9 C 87 % 91 % 1017,4 hPa 0,0 l/m 0,0 km/h (0 Bft) NW 315 5 min 15,5 C 18,6 C 0,0 km/h (0 Bft)
08.07.2021 21:05 17,7 C 21,0 C 17,8 C 18,5 C 18,5 C 0,8 C 87 % 91 % 1017,4 hPa 0,0 l/m 0,0 km/h (0 Bft) NW 315 5 min 15,5 C 18,5 C 0,0 km/h (0 Bft)
08.07.2021 21:10 17,7 C 21,0 C 17,7 C 18,5 C 18,5 C 0,8 C 87 % 91 % 1017,4 hPa 0,0 l/m 0,0 km/h (0 Bft) NW 315 0 min 15,5 C 18,5 C 0,0 km/h (0 Bft)
08.07.2021 21:15 17,6 C 21,0 C 17,7 C 18,5 C 18,5 C 0,9 C 87 % 91 % 1017,2 hPa 0,0 l/m 0,0 km/h (0 Bft) W-NW 292 0 min 15,4 C 18,5 C 0,0 km/h (0 Bft)
08.07.2021 21:20 17,6 C 21,0 C 17,8 C 18,5 C 18,5 C 0,9 C 87 % 91 % 1017,2 hPa 0,0 l/m 0,0 km/h (0 Bft) W-NW 292 0 min 15,4 C 18,5 C 0,0 km/h (0 Bft)
08.07.2021 21:25 17,7 C 21,0 C 17,7 C 18,4 C 18,4 C 0,7 C 88 % 91 % 1017,2 hPa 0,0 l/m 0,0 km/h (0 Bft) W-NW 292 0 min 15,7 C 18,4 C 0,0 km/h (0 Bft)
08.07.2021 21:30 17,7 C 21,0 C 17,8 C 18,4 C 18,4 C 0,7 C 88 % 91 % 1017,2 hPa 0,0 l/m 0,0 km/h (0 Bft) W-NW 292 0 min 15,7 C 18,4 C 0,0 km/h (0 Bft)
08.07.2021 21:35 17,6 C 21,0 C 17,8 C 18,4 C 18,4 C 0,8 C 88 % 91 % 1017,2 hPa 0,0 l/m 0,0 km/h (0 Bft) W-NW 292 0 min 15,6 C 18,4 C 0,0 km/h (0 Bft)
08.07.2021 21:40 17,6 C 21,0 C 17,7 C 18,3 C 18,3 C 0,7 C 87 % 91 % 1017,2 hPa 0,0 l/m 0,0 km/h (0 Bft) W-NW 292 0 min 15,4 C 18,3 C 0,0 km/h (0 Bft)
08.07.2021 21:45 17,5 C 21,0 C 17,7 C 18,3 C 18,3 C 0,8 C 88 % 91 % 1017,2 hPa 0,0 l/m 0,0 km/h (0 Bft) NW 315 0 min 15,5 C 18,3 C 0,0 km/h (0 Bft)
08.07.2021 21:50 17,5 C 21,0 C 17,7 C 18,3 C 18,3 C 0,8 C 88 % 91 % 1017,2 hPa 0,0 l/m 0,0 km/h (0 Bft) W-NW 292 0 min 15,5 C 18,3 C 0,0 km/h (0 Bft)
08.07.2021 21:55 17,5 C 21,0 C 17,5 C 18,1 C 18,1 C 0,6 C 88 % 91 % 1017,2 hPa 0,0 l/m 0,2 km/h (0 Bft) W 270 0 min 15,5 C 18,1 C 0,0 km/h (0 Bft)
08.07.2021 22:00 17,4 C 21,0 C 17,5 C 17,9 C 17,9 C 0,5 C 88 % 91 % 1017,2 hPa 0,0 l/m 0,2 km/h (0 Bft) W 270 0 min 15,4 C 17,9 C 0,0 km/h (0 Bft)
08.07.2021 22:05 17,5 C 21,0 C 17,4 C 17,6 C 17,6 C 0,1 C 88 % 92 % 1017,2 hPa 0,0 l/m 0,0 km/h (0 Bft) W 270 0 min 15,5 C 17,6 C 0,0 km/h (0 Bft)
08.07.2021 22:10 17,3 C 20,9 C 17,3 C 17,4 C 17,4 C 0,1 C 88 % 92 % 1017,2 hPa 0,0 l/m 0,0 km/h (0 Bft) W 270 0 min 15,3 C 17,4 C 0,0 km/h (0 Bft)
08.07.2021 22:15 17,2 C 20,9 C 17,2 C 17,2 C 17,2 C 0,0 C 88 % 92 % 1016,8 hPa 0,0 l/m 0,0 km/h (0 Bft) NW 315 0 min 15,2 C 17,2 C 0,0 km/h (0 Bft)
08.07.2021 22:20 17,2 C 21,1 C 17,2 C 17,2 C 17,2 C 0,0 C 88 % 92 % 1016,8 hPa 0,0 l/m 0,0 km/h (0 Bft) N-NO 22 0 min 15,2 C 17,2 C 0,0 km/h (0 Bft)
08.07.2021 22:25 17,1 C 21,1 C 17,1 C 17,2 C 17,2 C 0,1 C 88 % 92 % 1016,8 hPa 0,0 l/m 0,0 km/h (0 Bft) NO 45 0 min 15,1 C 17,2 C 0,0 km/h (0 Bft)
08.07.2021 22:30 17,1 C 21,0 C 17,1 C 17,2 C 17,2 C 0,1 C 88 % 92 % 1016,8 hPa 0,0 l/m 0,0 km/h (0 Bft) NO 45 0 min 15,1 C 17,2 C 0,0 km/h (0 Bft)
08.07.2021 22:35 17,0 C 21,0 C 17,0 C 17,0 C 17,0 C 0,0 C 88 % 92 % 1017,4 hPa 0,0 l/m 0,0 km/h (0 Bft) O 90 0 min 15,0 C 17,0 C 0,0 km/h (0 Bft)
08.07.2021 22:40 16,9 C 21,0 C 17,0 C 17,0 C 17,0 C 0,1 C 88 % 92 % 1017,4 hPa 0,0 l/m 0,0 km/h (0 Bft) O 90 0 min 14,9 C 17,0 C 0,0 km/h (0 Bft)
08.07.2021 22:45 16,9 C 21,0 C 16,9 C 16,9 C 16,9 C 0,0 C 88 % 92 % 1017,4 hPa 0,0 l/m 0,0 km/h (0 Bft) O 90 0 min 14,9 C 16,9 C 0,0 km/h (0 Bft)
08.07.2021 22:50 16,8 C 21,0 C 16,9 C 16,8 C 16,8 C 0,0 C 88 % 92 % 1017,4 hPa 0,0 l/m 0,0 km/h (0 Bft) O 90 0 min 14,8 C 16,8 C 0,0 km/h (0 Bft)
08.07.2021 22:55 16,7 C 21,0 C 16,8 C 16,8 C 16,8 C 0,1 C 88 % 92 % 1017,0 hPa 0,0 l/m 0,0 km/h (0 Bft) O 90 0 min 14,7 C 16,8 C 0,0 km/h (0 Bft)
08.07.2021 23:00 16,7 C 21,0 C 16,8 C 16,7 C 16,7 C 0,0 C 88 % 92 % 1017,0 hPa 0,0 l/m 0,0 km/h (0 Bft) O 90 0 min 14,7 C 16,7 C 0,0 km/h (0 Bft)
08.07.2021 23:05 16,6 C 21,0 C 16,8 C 16,8 C 16,8 C 0,2 C 88 % 91 % 1017,0 hPa 0,0 l/m 0,0 km/h (0 Bft) O 90 0 min 14,6 C 16,8 C 0,0 km/h (0 Bft)
08.07.2021 23:10 16,5 C 21,0 C 16,9 C 16,9 C 16,9 C 0,4 C 88 % 91 % 1017,0 hPa 0,0 l/m 0,0 km/h (0 Bft) O 90 0 min 14,5 C 16,9 C 0,0 km/h (0 Bft)
08.07.2021 23:15 16,5 C 21,0 C 16,9 C 17,0 C 17,0 C 0,5 C 88 % 91 % 1016,9 hPa 0,0 l/m 0,0 km/h (0 Bft) NO 45 0 min 14,5 C 17,0 C 0,0 km/h (0 Bft)
08.07.2021 23:20 16,4 C 21,0 C 16,9 C 17,0 C 17,0 C 0,6 C 88 % 91 % 1016,9 hPa 0,0 l/m 0,0 km/h (0 Bft) NO 45 0 min 14,4 C 17,0 C 0,0 km/h (0 Bft)
08.07.2021 23:25 16,4 C 21,0 C 16,9 C 17,1 C 17,1 C 0,7 C 88 % 91 % 1016,9 hPa 0,0 l/m 0,0 km/h (0 Bft) NO 45 0 min 14,4 C 17,1 C 0,0 km/h (0 Bft)
08.07.2021 23:30 16,4 C 21,0 C 16,9 C 17,1 C 17,1 C 0,7 C 88 % 91 % 1016,9 hPa 0,0 l/m 0,0 km/h (0 Bft) NO 45 0 min 14,4 C 17,1 C 0,0 km/h (0 Bft)
08.07.2021 23:35 16,5 C 21,0 C 16,9 C 17,1 C 17,1 C 0,6 C 88 % 91 % 1017,2 hPa 0,0 l/m 0,0 km/h (0 Bft) NO 45 0 min 14,5 C 17,1 C 0,0 km/h (0 Bft)
08.07.2021 23:40 16,4 C 21,0 C 16,9 C 17,2 C 17,2 C 0,8 C 88 % 91 % 1017,2 hPa 0,0 l/m 0,0 km/h (0 Bft) NO 45 0 min 14,4 C 17,2 C 0,0 km/h (0 Bft)
08.07.2021 23:45 16,4 C 21,0 C 16,9 C 17,2 C 17,2 C 0,8 C 88 % 91 % 1017,2 hPa 0,0 l/m 0,0 km/h (0 Bft) NO 45 0 min 14,4 C 17,2 C 0,0 km/h (0 Bft)
08.07.2021 23:50 16,4 C 21,0 C 16,9 C 17,2 C 17,2 C 0,8 C 88 % 91 % 1017,2 hPa 0,0 l/m 0,0 km/h (0 Bft) NO 45 0 min 14,4 C 17,2 C 0,0 km/h (0 Bft)
08.07.2021 23:55 16,3 C 21,0 C 16,9 C 17,2 C 17,2 C 0,9 C 88 % 91 % 1016,5 hPa 0,0 l/m 0,0 km/h (0 Bft) NO 45 0 min 14,3 C 17,2 C 0,0 km/h (0 Bft)
_ Min-Zeit 04:25 14:55 03:50 03:55 03:45 00:00 00:00 15:15 18:55 - 00:00 - - - 04:25 03:45 00:00
Minimum _ 13,5 C 20,6 C 14,4 C 13,8 C 13,8 C 0,0 C 86 % 91 % 1016,3 hPa - 0,0 km/h (0 Bft) - - - 11,6 C 13,8 C 0,0 km/h (0 Bft)
_ Max-Zeit 12:15 00:00 17:45 17:55 17:55 17:55 08:15 00:30 09:35 14:35 18:40 - - 05:20 12:15 17:55 16:25
Maximum _ 18,7 C 21,4 C 18,4 C 23,0 C 23,0 C 5,4 C 89 % 93 % 1020,6 hPa 2,1 l/m 2,7 km/h
O-NO (1 Bft)
- - 5 min 16,5 C 23,0 C 7,7 km/h
NW (2 Bft)
Durchschnitt _ 16,3 C 21,1 C 16,8 C 17,6 C 17,5 C 1,3 C 88 % 92 % 1018,7 hPa #6,9 l/m 0,2 km/h (0 Bft) O-NO - #4:50 h 14,3 C 17,5 C 0,3 km/h (0 Bft)
2021 www.wetterstation-wechselburg.de